Weather History for Herbert Island, BC

Change the Weather History Date:

Tuesday, March 19, 2013

  Actual Average Record
Temperature  
Mean Temperature 42 °F -  
Max Temperature 45 °F - - ()
Min Temperature 39 °F - - ()
Degree Days  
Heating Degree Days 23    
Moisture  
Dew Point 34 °F    
Average Humidity 74    
Maximum Humidity 90    
Minimum Humidity 47    
Precipitation  
Precipitation 0.00 in - - ()
Sea Level Pressure  
Sea Level Pressure 29.82 in    
Wind  
Wind Speed 24 mph ()    
Max Wind Speed 43 mph    
Max Gust Speed 54 mph    
T = Trace of Precipitation, MM = Missing Value Source: Averaged Metar Reports

Daily Weather History Graph

Daily Weather History Graph

Search for Another Location

Airport:

Trip Planner

Search our weather history database for the weather conditions in past years. The results will help you decide how hot, cold, wet, or windy it might be!

Date:

Astronomy

Mar. 19, 2013 Rise Set
Actual Time 7:34 AM PDT 7:42 PM PDT
Civil Twilight 7:01 AM PDT 8:15 PM PDT
Nautical Twilight 6:22 AM PDT 8:54 PM PDT
Astronomical Twilight 5:42 AM PDT 9:34 PM PDT
Moon 11:54 AM PDT (3/19) 3:10 AM PDT (3/19)
Length of Visible Light 13h 13m
Length of Day
12h 08m
Waxing Crescent, 51% of the Moon is Illuminated
Mar 19
Waxing Crescent
Mar 27
Full
Apr 2
Last Quarter
Apr 10
New
Apr 18
First Quarter

Hourly Weather History & Observations

Time (PDT) Temp. Windchill Dew Point Humidity Pressure Visibility Wind Dir Wind Speed Gust Speed Precip Events Conditions
12:00 AM 40.5 °F 34.1 °F 35.2 °F 82% 30.18 in - East 10.4 mph - N/A   Unknown
1:00 AM 40.8 °F 32.9 °F 34.5 °F 78% 30.16 in - ESE 15.0 mph - N/A   Unknown
2:00 AM 40.3 °F 31.9 °F 35.6 °F 83% 30.14 in - SE 16.1 mph - N/A   Unknown
3:00 AM 40.5 °F 31.2 °F 35.6 °F 83% 30.14 in - SE 19.6 mph - N/A   Unknown
4:00 AM 40.3 °F 30.7 °F 35.4 °F 83% 30.11 in - SE 20.7 mph - N/A   Unknown
5:00 AM 40 °F - 34 °F 72% 30.09 in - SE 21.9 mph - -  
5:00 AM 40.1 °F 30.2 °F 34.2 °F 79% 30.09 in - SE 21.9 mph - N/A   Unknown
6:00 AM 40.6 °F 30.7 °F 34.5 °F 79% 30.06 in - SE 23.0 mph 28.8 mph N/A   Unknown
7:00 AM 40.6 °F 30.7 °F 33.6 °F 76% 30.03 in - SE 23.0 mph - N/A   Unknown
8:00 AM 41.4 °F 30.5 °F 33.6 °F 74% 30.00 in - SE 28.8 mph 34.5 mph N/A   Unknown
9:00 AM 41.7 °F 30.3 °F 33.8 °F 73% 29.97 in - SE 33.4 mph 40.3 mph N/A   Unknown
10:00 AM 42.4 °F 31.6 °F 33.6 °F 71% 29.94 in - SE 31.1 mph 36.8 mph N/A   Unknown
11:00 AM 44 °F - 34 °F 57% 29.90 in - SE 36.8 mph - -  
11:00 AM 43.7 °F 32.5 °F 33.6 °F 68% 29.90 in - SE 36.8 mph 44.9 mph N/A   Unknown
12:00 PM 44.1 °F 34.0 °F 33.4 °F 66% 29.85 in - ESE 29.9 mph - N/A   Unknown
1:00 PM 44.2 °F 33.9 °F 31.6 °F 61% 29.82 in - SE 32.2 mph 41.4 mph N/A   Unknown
2:00 PM 44.4 °F 33.8 °F 31.3 °F 60% 29.78 in - SE 34.5 mph 44.9 mph N/A   Unknown
3:00 PM 44.6 °F 34.2 °F 31.6 °F 60% 29.73 in - ESE 33.4 mph 41.4 mph N/A   Unknown
4:00 PM 44.8 °F 34.3 °F 31.3 °F 59% 29.67 in - ESE 34.5 mph 42.6 mph N/A   Unknown
5:00 PM 44 °F - 31 °F 47% 29.63 in - ESE 38.0 mph - -  
5:00 PM 44.2 °F 33.1 °F 30.6 °F 59% 29.63 in - ESE 38.0 mph 46.0 mph N/A   Unknown
6:00 PM 43.0 °F 31.1 °F 34.2 °F 71% 29.58 in - ESE 40.3 mph 49.5 mph N/A   Unknown
7:00 PM 41.4 °F 28.8 °F 37.0 °F 85% 29.52 in - ESE 40.3 mph 48.3 mph N/A   Unknown
8:00 PM 39.7 °F 26.4 °F 36.1 °F 87% 29.47 in - ESE 41.4 mph 50.6 mph N/A   Unknown
9:00 PM 40.1 °F 26.9 °F 37.0 °F 89% 29.42 in - ESE 41.4 mph 50.6 mph N/A   Unknown
10:00 PM 39.7 °F 26.3 °F 37.0 °F 90% 29.37 in - ESE 42.6 mph 54.1 mph N/A   Unknown
11:00 PM 41 °F - 38 °F 86% 29.33 in - ESE 41.4 mph - -  
11:00 PM 41.4 °F 28.7 °F 38.3 °F 89% 29.33 in - ESE 41.4 mph 52.9 mph N/A   Unknown